When you browse on this site, cookies collect data to enhance your experience and personalize the content and advertising you see.
Visit our Privacy Policy to learn more. By continuing to use the site, you agree to this use of cookies and data.
  • în România
  • Lista ţărilor
  • Pe 7 zile
  • Temperatura apei
  • Meteo pe hartă
  • Widget-uri
  • user-avatar
    Intrare

    Meteo pe oră la Tuzla

    Astăzi, 27 Februarie, Joi

    Timp Temperatura Precipitaţii Vânt Presiune Umiditate
    00:00 +1°C° 1.9 mm 2 m/s 710 mmHg 97%
    01:00 +1°C° 1.9 mm 2 m/s 710 mmHg 97%
    02:00 +1°C° 1.2 mm 2 m/s 710 mmHg 97%
    03:00 +1°C° 1.2 mm 2 m/s 710 mmHg 97%
    04:00 +1°C° 1.2 mm 2 m/s 710 mmHg 97%
    05:00 0°C° 1.1 mm 3 m/s 711 mmHg 97%
    06:00 0°C° 1.1 mm 3 m/s 712 mmHg 96%
    07:00 0°C° 1.1 mm 3 m/s 713 mmHg 96%
    08:00 0°C° 0.7 mm 3 m/s 714 mmHg 94%
    09:00 0°C° 0.7 mm 3 m/s 715 mmHg 93%
    10:00 +1°C° 0.7 mm 3 m/s 716 mmHg 91%
    11:00 +1°C° 0.3 mm 3 m/s 716 mmHg 88%
    12:00 +2°C° 0.3 mm 3 m/s 716 mmHg 86%
    13:00 +3°C° 0.3 mm 2 m/s 717 mmHg 83%
    14:00 +3°C° 0.1 mm 2 m/s 717 mmHg 82%
    15:00 +4°C° 0.1 mm 2 m/s 716 mmHg 82%
    16:00 +5°C° 0.1 mm 1 m/s 716 mmHg 81%
    17:00 +2°C° 0 mm 2 m/s 716 mmHg 83%
    18:00 +1°C° 0 mm 2 m/s 716 mmHg 84%
    19:00 -1°C° 0 mm 2 m/s 716 mmHg 86%
    20:00 -1°C° 0 mm 2 m/s 716 mmHg 84%
    21:00 -1°C° 0 mm 3 m/s 716 mmHg 82%
    22:00 -1°C° 0 mm 3 m/s 715 mmHg 80%
    23:00 -1°C° 0 mm 3 m/s 715 mmHg 80%

    Mâine, 28 Februarie, Vineri

    Timp Temperatura Precipitaţii Vânt Presiune Umiditate
    00:00 0°C° 0 mm 3 m/s 715 mmHg 79%
    01:00 0°C° 0 mm 3 m/s 714 mmHg 78%
    02:00 0°C° 0 mm 3 m/s 714 mmHg 80%
    03:00 +1°C° 0 mm 3 m/s 713 mmHg 81%
    04:00 +1°C° 0 mm 3 m/s 713 mmHg 82%
    05:00 +1°C° 0.1 mm 3 m/s 713 mmHg 84%
    06:00 +2°C° 0.1 mm 2 m/s 713 mmHg 86%
    07:00 +2°C° 0.1 mm 2 m/s 714 mmHg 89%
    08:00 +3°C° 0.4 mm 2 m/s 715 mmHg 85%
    09:00 +4°C° 0.4 mm 3 m/s 715 mmHg 82%
    10:00 +5°C° 0.4 mm 4 m/s 716 mmHg 78%
    11:00 +5°C° 0.1 mm 4 m/s 717 mmHg 74%
    12:00 +5°C° 0.1 mm 5 m/s 718 mmHg 70%
    13:00 +5°C° 0.1 mm 5 m/s 718 mmHg 66%
    14:00 +5°C° 0.2 mm 5 m/s 719 mmHg 68%
    15:00 +4°C° 0.2 mm 4 m/s 720 mmHg 69%
    16:00 +4°C° 0.2 mm 4 m/s 720 mmHg 71%
    17:00 +3°C° 0.1 mm 3 m/s 721 mmHg 73%
    18:00 +2°C° 0.1 mm 2 m/s 722 mmHg 76%
    19:00 +2°C° 0.1 mm 1 m/s 723 mmHg 78%
    20:00 +2°C° 0 mm 1 m/s 723 mmHg 79%
    21:00 +1°C° 0 mm 1 m/s 723 mmHg 81%
    22:00 +1°C° 0 mm 1 m/s 724 mmHg 82%
    23:00 0°C° 0 mm 1 m/s 724 mmHg 82%

    Poimâine, 29 Februarie, Sâmbătă

    Timp Temperatura Precipitaţii Vânt Presiune Umiditate
    00:00 0°C° 0 mm 1 m/s 724 mmHg 83%
    01:00 0°C° 0 mm 1 m/s 724 mmHg 83%
    02:00 0°C° 0 mm 1 m/s 724 mmHg 83%
    03:00 -1°C° 0 mm 1 m/s 723 mmHg 84%
    04:00 -1°C° 0 mm 1 m/s 723 mmHg 84%
    05:00 -3°C° 0 mm 2 m/s 723 mmHg 83%
    06:00 -3°C° 0 mm 2 m/s 723 mmHg 82%
    07:00 -3°C° 0 mm 2 m/s 722 mmHg 81%
    08:00 +1°C° 0 mm 2 m/s 722 mmHg 76%
    09:00 +3°C° 0 mm 2 m/s 722 mmHg 71%
    10:00 +5°C° 0 mm 2 m/s 722 mmHg 66%
    11:00 +6°C° 0 mm 2 m/s 721 mmHg 64%
    12:00 +7°C° 0 mm 2 m/s 721 mmHg 63%
    13:00 +8°C° 0 mm 2 m/s 721 mmHg 62%
    14:00 +8°C° 0 mm 2 m/s 720 mmHg 66%
    15:00 +8°C° 0 mm 2 m/s 719 mmHg 69%
    16:00 +7°C° 0 mm 2 m/s 719 mmHg 73%
    17:00 +6°C° 0 mm 2 m/s 719 mmHg 75%
    18:00 +5°C° 0 mm 2 m/s 719 mmHg 77%
    19:00 +3°C° 0 mm 2 m/s 719 mmHg 80%
    20:00 +3°C° 0 mm 2 m/s 718 mmHg 79%
    21:00 +3°C° 0 mm 2 m/s 718 mmHg 78%
    22:00 +2°C° 0 mm 2 m/s 718 mmHg 77%
    23:00 +2°C° 0 mm 2 m/s 718 mmHg 77%

    1 Martie, Duminică

    Timp Temperatura Precipitaţii Vânt Presiune Umiditate
    00:00 +2°C° 0 mm 2 m/s 718 mmHg 76%
    01:00 +2°C° 0 mm 2 m/s 717 mmHg 76%
    02:00 +2°C° 0 mm 2 m/s 717 mmHg 76%
    03:00 +1°C° 0 mm 3 m/s 717 mmHg 76%
    04:00 +1°C° 0 mm 3 m/s 717 mmHg 76%
    05:00 +2°C° 0 mm 3 m/s 717 mmHg 79%
    06:00 +4°C° 0 mm 2 m/s 717 mmHg 81%
    07:00 +4°C° 0 mm 2 m/s 717 mmHg 84%
    08:00 +5°C° 0 mm 3 m/s 717 mmHg 82%
    09:00 +7°C° 0 mm 3 m/s 717 mmHg 81%
    10:00 +9°C° 0 mm 3 m/s 717 mmHg 79%
    11:00 +10°C° 0 mm 3 m/s 716 mmHg 78%
    12:00 +10°C° 0 mm 3 m/s 716 mmHg 77%
    13:00 +11°C° 0 mm 4 m/s 715 mmHg 76%
    14:00 +10°C° 0.1 mm 3 m/s 715 mmHg 79%
    15:00 +10°C° 0.1 mm 3 m/s 714 mmHg 82%
    16:00 +9°C° 0.1 mm 2 m/s 714 mmHg 84%
    17:00 +8°C° 0.1 mm 2 m/s 714 mmHg 87%
    18:00 +8°C° 0.1 mm 2 m/s 714 mmHg 89%
    19:00 +7°C° 0.1 mm 2 m/s 714 mmHg 91%
    20:00 +7°C° 0.1 mm 2 m/s 714 mmHg 91%
    21:00 +7°C° 0.1 mm 2 m/s 713 mmHg 91%
    22:00 +7°C° 0.1 mm 2 m/s 713 mmHg 91%
    23:00 +7°C° 0.1 mm 2 m/s 712 mmHg 91%

    2 Martie, Luni

    Timp Temperatura Precipitaţii Vânt Presiune Umiditate
    00:00 +7°C° 0.1 mm 2 m/s 712 mmHg 92%
    01:00 +7°C° 0.1 mm 2 m/s 711 mmHg 92%
    02:00 +7°C° 0.2 mm 2 m/s 711 mmHg 92%
    03:00 +7°C° 0.2 mm 2 m/s 710 mmHg 92%
    04:00 +7°C° 0.2 mm 2 m/s 709 mmHg 92%
    05:00 +7°C° 0.2 mm 2 m/s 709 mmHg 92%
    06:00 +7°C° 0.2 mm 2 m/s 709 mmHg 92%
    07:00 +7°C° 0.2 mm 2 m/s 709 mmHg 92%
    08:00 +8°C° 0.4 mm 2 m/s 709 mmHg 88%
    09:00 +9°C° 0.4 mm 3 m/s 709 mmHg 83%
    10:00 +10°C° 0.4 mm 3 m/s 710 mmHg 79%
    11:00 +9°C° 0.3 mm 5 m/s 710 mmHg 74%
    12:00 +9°C° 0.3 mm 6 m/s 710 mmHg 70%
    13:00 +10°C° 0.3 mm 7 m/s 710 mmHg 66%
    14:00 +10°C° 0 mm 7 m/s 711 mmHg 66%
    15:00 +9°C° 0 mm 6 m/s 711 mmHg 66%
    16:00 +9°C° 0 mm 5 m/s 712 mmHg 66%
    17:00 +8°C° 0 mm 4 m/s 712 mmHg 70%
    18:00 +8°C° 0 mm 3 m/s 713 mmHg 75%
    19:00 +7°C° 0 mm 2 m/s 713 mmHg 80%
    20:00 +6°C° 0 mm 2 m/s 713 mmHg 81%
    21:00 +5°C° 0 mm 2 m/s 714 mmHg 83%
    22:00 +6°C° 0 mm 1 m/s 714 mmHg 84%
    23:00 +6°C° 0 mm 1 m/s 713 mmHg 84%

    3 Martie, Marţi

    Timp Temperatura Precipitaţii Vânt Presiune Umiditate
    00:00 +7°C° 0 mm 1 m/s 713 mmHg 84%
    01:00 +7°C° 0 mm 1 m/s 713 mmHg 83%
    02:00 +7°C° 0 mm 1 m/s 712 mmHg 84%
    03:00 +7°C° 0 mm 1 m/s 712 mmHg 85%
    04:00 +6°C° 0 mm 2 m/s 711 mmHg 86%
    05:00 +6°C° 0 mm 2 m/s 711 mmHg 87%
    06:00 +6°C° 0 mm 2 m/s 711 mmHg 88%
    07:00 +6°C° 0 mm 2 m/s 710 mmHg 89%
    08:00 +7°C° 0 mm 2 m/s 710 mmHg 86%
    09:00 +8°C° 0 mm 2 m/s 710 mmHg 84%
    10:00 +9°C° 0 mm 2 m/s 710 mmHg 81%
    11:00 +10°C° 0.2 mm 2 m/s 710 mmHg 81%
    12:00 +10°C° 0.2 mm 2 m/s 710 mmHg 80%
    13:00 +12°C° 0.2 mm 2 m/s 710 mmHg 80%
    14:00 +12°C° 0.4 mm 2 m/s 709 mmHg 82%
    15:00 +11°C° 0.4 mm 1 m/s 709 mmHg 84%
    16:00 +11°C° 0.4 mm 1 m/s 709 mmHg 86%
    17:00 +10°C° 0.1 mm 1 m/s 708 mmHg 88%
    18:00 +10°C° 0.1 mm 1 m/s 708 mmHg 90%
    19:00 +8°C° 0.1 mm 0 m/s 708 mmHg 91%
    20:00 +8°C° 0.5 mm 0 m/s 708 mmHg 93%
    21:00 +8°C° 0.5 mm 0 m/s 708 mmHg 95%
    22:00 +8°C° 0.5 mm 0 m/s 708 mmHg 96%
    23:00 +9°C° 0.7 mm 1 m/s 708 mmHg 97%
    Arată mai mult